Meteo pe oră la Abay

Astăzi, 24 Iulie, Sâmbătă

Timp Temperatura Precipitaţii Vânt Presiune Umiditate
00:00 +26°C° 0 mm 3 m/s 688 mmHg 40%
01:00 +26°C° 0 mm 3 m/s 688 mmHg 39%
02:00 +26°C° 0 mm 3 m/s 687 mmHg 37%
03:00 +25°C° 0 mm 3 m/s 688 mmHg 37%
04:00 +25°C° 0 mm 3 m/s 688 mmHg 37%
05:00 +25°C° 0 mm 3 m/s 688 mmHg 37%
06:00 +27°C° 0 mm 2 m/s 688 mmHg 32%
07:00 +30°C° 0 mm 2 m/s 689 mmHg 28%
08:00 +32°C° 0 mm 1 m/s 690 mmHg 24%
09:00 +33°C° 0 mm 1 m/s 690 mmHg 23%
10:00 +36°C° 0 mm 2 m/s 690 mmHg 22%
11:00 +37°C° 0 mm 2 m/s 690 mmHg 21%
12:00 +38°C° 0 mm 2 m/s 689 mmHg 21%
13:00 +38°C° 0 mm 2 m/s 689 mmHg 20%
14:00 +39°C° 0 mm 2 m/s 689 mmHg 20%
15:00 +39°C° 0 mm 2 m/s 689 mmHg 20%
16:00 +39°C° 0 mm 2 m/s 689 mmHg 20%
17:00 +39°C° 0 mm 2 m/s 689 mmHg 20%
18:00 +36°C° 0 mm 2 m/s 689 mmHg 23%
19:00 +33°C° 0 mm 3 m/s 689 mmHg 27%
20:00 +30°C° 0 mm 3 m/s 689 mmHg 30%
21:00 +29°C° 0 mm 3 m/s 690 mmHg 31%
22:00 +28°C° 0 mm 3 m/s 690 mmHg 32%
23:00 +28°C° 0 mm 3 m/s 690 mmHg 32%

Mâine, 25 Iulie, Duminică

Timp Temperatura Precipitaţii Vânt Presiune Umiditate
00:00 +27°C° 0 mm 3 m/s 690 mmHg 30%
01:00 +27°C° 0 mm 3 m/s 690 mmHg 29%
02:00 +27°C° 0 mm 3 m/s 689 mmHg 27%
03:00 +27°C° 0 mm 3 m/s 689 mmHg 25%
04:00 +27°C° 0 mm 3 m/s 689 mmHg 23%
05:00 +26°C° 0 mm 2 m/s 689 mmHg 22%
06:00 +29°C° 0 mm 2 m/s 690 mmHg 21%
07:00 +31°C° 0 mm 2 m/s 690 mmHg 20%
08:00 +34°C° 0 mm 1 m/s 691 mmHg 18%
09:00 +36°C° 0 mm 2 m/s 691 mmHg 18%
10:00 +37°C° 0 mm 2 m/s 691 mmHg 17%
11:00 +39°C° 0 mm 2 m/s 691 mmHg 17%
12:00 +39°C° 0 mm 2 m/s 691 mmHg 16%
13:00 +40°C° 0 mm 3 m/s 690 mmHg 16%
14:00 +42°C° 0 mm 3 m/s 690 mmHg 15%
15:00 +42°C° 0 mm 3 m/s 690 mmHg 16%
16:00 +40°C° 0 mm 3 m/s 690 mmHg 16%
17:00 +40°C° 0 mm 3 m/s 690 mmHg 16%
18:00 +37°C° 0 mm 3 m/s 690 mmHg 19%
19:00 +34°C° 0 mm 2 m/s 690 mmHg 23%
20:00 +30°C° 0 mm 2 m/s 690 mmHg 26%
21:00 +30°C° 0 mm 2 m/s 690 mmHg 26%
22:00 +29°C° 0 mm 2 m/s 690 mmHg 26%
23:00 +29°C° 0 mm 3 m/s 690 mmHg 26%

Poimâine, 26 Iulie, Luni

Timp Temperatura Precipitaţii Vânt Presiune Umiditate
00:00 +28°C° 0 mm 3 m/s 690 mmHg 26%
01:00 +28°C° 0 mm 3 m/s 690 mmHg 27%
02:00 +28°C° 0 mm 2 m/s 689 mmHg 27%
03:00 +27°C° 0 mm 2 m/s 689 mmHg 28%
04:00 +27°C° 0 mm 2 m/s 689 mmHg 28%
05:00 +27°C° 0 mm 2 m/s 689 mmHg 28%
06:00 +30°C° 0 mm 2 m/s 689 mmHg 25%
07:00 +32°C° 0 mm 2 m/s 690 mmHg 22%
08:00 +35°C° 0 mm 1 m/s 690 mmHg 20%
09:00 +37°C° 0 mm 2 m/s 690 mmHg 19%
10:00 +38°C° 0 mm 2 m/s 690 mmHg 17%
11:00 +39°C° 0 mm 2 m/s 690 mmHg 16%
12:00 +40°C° 0 mm 3 m/s 690 mmHg 16%
13:00 +42°C° 0 mm 3 m/s 689 mmHg 16%
14:00 +42°C° 0 mm 3 m/s 689 mmHg 15%
15:00 +42°C° 0 mm 3 m/s 689 mmHg 15%
16:00 +42°C° 0 mm 3 m/s 689 mmHg 16%
17:00 +40°C° 0 mm 2 m/s 689 mmHg 16%
18:00 +38°C° 0 mm 2 m/s 688 mmHg 19%
19:00 +35°C° 0 mm 2 m/s 688 mmHg 22%
20:00 +31°C° 0 mm 2 m/s 688 mmHg 25%
21:00 +31°C° 0 mm 3 m/s 688 mmHg 26%
22:00 +30°C° 0 mm 3 m/s 688 mmHg 27%
23:00 +29°C° 0 mm 4 m/s 689 mmHg 28%

27 Iulie, Marţi

Timp Temperatura Precipitaţii Vânt Presiune Umiditate
00:00 +28°C° 0 mm 3 m/s 688 mmHg 29%
01:00 +28°C° 0 mm 3 m/s 688 mmHg 30%
02:00 +27°C° 0 mm 3 m/s 688 mmHg 31%
03:00 +27°C° 0 mm 2 m/s 688 mmHg 32%
04:00 +26°C° 0 mm 2 m/s 688 mmHg 33%
05:00 +26°C° 0 mm 2 m/s 688 mmHg 34%
06:00 +28°C° 0 mm 2 m/s 689 mmHg 34%
07:00 +29°C° 0 mm 2 m/s 689 mmHg 33%
08:00 +31°C° 0 mm 2 m/s 690 mmHg 33%
09:00 +33°C° 0 mm 3 m/s 689 mmHg 32%
10:00 +34°C° 0 mm 3 m/s 689 mmHg 31%
11:00 +35°C° 0 mm 3 m/s 689 mmHg 29%
12:00 +36°C° 0 mm 4 m/s 689 mmHg 29%
13:00 +36°C° 0 mm 4 m/s 689 mmHg 28%
14:00 +37°C° 0 mm 4 m/s 688 mmHg 27%
15:00 +37°C° 0 mm 4 m/s 688 mmHg 27%
16:00 +36°C° 0 mm 4 m/s 688 mmHg 27%
17:00 +36°C° 0 mm 5 m/s 688 mmHg 27%
18:00 +33°C° 0 mm 4 m/s 688 mmHg 31%
19:00 +30°C° 0 mm 3 m/s 688 mmHg 35%
20:00 +27°C° 0 mm 2 m/s 688 mmHg 38%
21:00 +26°C° 0 mm 2 m/s 688 mmHg 40%
22:00 +25°C° 0 mm 2 m/s 688 mmHg 41%
23:00 +24°C° 0 mm 1 m/s 688 mmHg 42%

28 Iulie, Miercuri

Timp Temperatura Precipitaţii Vânt Presiune Umiditate
00:00 +24°C° 0 mm 1 m/s 687 mmHg 43%
01:00 +24°C° 0 mm 1 m/s 687 mmHg 43%
02:00 +23°C° 0 mm 1 m/s 686 mmHg 44%
03:00 +23°C° 0 mm 1 m/s 686 mmHg 44%
04:00 +23°C° 0 mm 1 m/s 686 mmHg 45%
05:00 +23°C° 0 mm 1 m/s 686 mmHg 45%
06:00 +25°C° 0 mm 1 m/s 686 mmHg 40%
07:00 +27°C° 0 mm 1 m/s 687 mmHg 35%
08:00 +29°C° 0 mm 2 m/s 687 mmHg 29%
09:00 +30°C° 0 mm 2 m/s 687 mmHg 27%
10:00 +32°C° 0 mm 2 m/s 687 mmHg 25%
11:00 +34°C° 0 mm 3 m/s 687 mmHg 24%
12:00 +35°C° 0 mm 3 m/s 687 mmHg 23%
13:00 +35°C° 0 mm 3 m/s 687 mmHg 23%
14:00 +36°C° 0 mm 4 m/s 686 mmHg 23%
15:00 +36°C° 0 mm 4 m/s 686 mmHg 23%
16:00 +35°C° 0 mm 4 m/s 686 mmHg 23%
17:00 +35°C° 0 mm 4 m/s 686 mmHg 23%
18:00 +31°C° 0 mm 3 m/s 686 mmHg 26%
19:00 +29°C° 0 mm 2 m/s 687 mmHg 29%
20:00 +26°C° 0 mm 2 m/s 687 mmHg 32%
21:00 +25°C° 0.1 mm 2 m/s 687 mmHg 35%
22:00 +24°C° 0.1 mm 2 m/s 687 mmHg 37%
23:00 +23°C° 0.1 mm 1 m/s 687 mmHg 39%

29 Iulie, Joi

Timp Temperatura Precipitaţii Vânt Presiune Umiditate
00:00 +23°C° 0.1 mm 2 m/s 687 mmHg 41%
01:00 +23°C° 0.1 mm 2 m/s 686 mmHg 42%
02:00 +23°C° 0.1 mm 2 m/s 686 mmHg 43%
03:00 +21°C° 0.1 mm 2 m/s 686 mmHg 43%
04:00 +21°C° 0.1 mm 2 m/s 686 mmHg 44%
05:00 +21°C° 0.1 mm 2 m/s 686 mmHg 45%
06:00 +24°C° 0.1 mm 2 m/s 687 mmHg 40%
07:00 +26°C° 0.1 mm 2 m/s 687 mmHg 35%
08:00 +28°C° 0.1 mm 2 m/s 687 mmHg 31%
09:00 +29°C° 0.1 mm 2 m/s 687 mmHg 28%
10:00 +30°C° 0.1 mm 3 m/s 687 mmHg 25%
11:00 +33°C° 0.1 mm 3 m/s 687 mmHg 23%
12:00 +33°C° 0 mm 3 m/s 687 mmHg 22%
13:00 +34°C° 0 mm 3 m/s 687 mmHg 22%
14:00 +35°C° 0 mm 3 m/s 687 mmHg 22%
15:00 +35°C° 0 mm 3 m/s 687 mmHg 21%
16:00 +34°C° 0 mm 3 m/s 687 mmHg 21%
17:00 +34°C° 0 mm 4 m/s 687 mmHg 20%
18:00 +30°C° 0 mm 3 m/s 687 mmHg 23%
19:00 +28°C° 0 mm 2 m/s 687 mmHg 26%
20:00 +25°C° 0 mm 2 m/s 687 mmHg 29%
21:00 +24°C° 0 mm 2 m/s 687 mmHg 31%
22:00 +24°C° 0 mm 2 m/s 688 mmHg 32%
23:00 +23°C° 0 mm 2 m/s 688 mmHg 34%
Arată mai mult

Formular de consimțământ

Meteoprog și furnizorii noștri de servicii pot stoca și accesa date personale, precum cookies, identificatori de dispozitiv sau alte tehnologii similare pe dispozitivul dumneavoastră și procesa astfel de date pentru a personaliza conținutul și reclamele, dar și pentru a oferi caracteristici de social media și pentru a analiza traficul.

  • Stocarea și/sau accesarea informațiilor pe dispozitivul dumneavoastră

    Cookies, identificatori de dispozitiv sau alte informații pot fi stocate sau accesate pe dispozitiv în scopurile indicate mai sus.

  • Reclame și conținut personalizat, evaluarea reclamelor și a conținutului, informații despre audiențe și dezvoltarea produselor

    Reclamele și conținutul pot fi personalizate pe baza unui profil. Pot fi adăugate date suplimentare pentru a personaliza mai bine reclamele și conținutul. Performanța reclamelor și conținutului poate fi măsurată. Pot fi obținute informații despre utilizatorii care au văzut reclamele și conținutul. Aceste date pot fi utilizate pentru a dezvolta sau îmbunătăți experiența utilizatorilor, sistemele și software-ul.

Dând clic pe ‘Sunt de acord’, permiteți utilizarea cookie-urilor menționate, a identificatorilor de dispozitiv, balizelor web sau altor tehnologii similare. Setările pot fi modificate din browser-ul dispozitivului dumneavoastră.

În anumite scopuri, interesele legitime pot prima asupra consimțământului. Puteți citi mai multe informații în acest sens în Politica privind Confidențialitatea Datelor și Cookie.